This demonstration page uses our WeatherBlox Daily Observations layout. Learn more.

Left ArrowRight Arrow

41.12389, -100.76542

Hourly Observations for September 22, 2017

Temp ( °F °C ) Dew Point ( °F °C ) Humidity (%) Winds ( mph kmh ) Pressure ( in mb ) Visibility ( mi km ) Precip ( " mm )
12:53 am 00:53 Clear 77 25 51 10.6 40 40 SSE 15 24 29.54 1000 10 16 0.00 0.00
1:53 am 01:53 Clear 77 25 59 15 54 54 SSE 21 33 29.53 1000 10 16 0.00 0.00
2:53 am 02:53 Clear 78 25.6 64 17.8 62 62 S 22 35 29.53 1000 10 16 0.00 0.00
3:53 am 03:53 Clear 78 25.6 64 17.8 62 62 S 17 28 29.54 1000 10 16 0.00 0.00
4:53 am 04:53 Clear 76 24.4 64 17.8 67 67 S 15 24 29.55 1001 10 16 0.00 0.00
5:53 am 05:53 Clear 74 23.3 63 17.2 69 69 S 13 20 29.56 1001 10 16 0.00 0.00
6:53 am 06:53 Clear 73 22.8 62 16.7 69 69 S 14 22 29.57 1001 10 16 0.00 0.00
7:53 am 07:53 Sunny 73 22.8 61 16.1 66 66 S 13 20 29.60 1002 10 16 0.00 0.00
8:53 am 08:53 Sunny 74 23.3 62 16.7 67 67 S 9 15 29.62 1003 10 16 0.00 0.00
9:53 am 09:53 Sunny 78 25.6 59 15 52 52 SSW 20 31 29.63 1004 10 16 0.00 0.00
10:53 am 10:53 Sunny 82 27.8 58 14.4 44 44 SSW 14 22 29.63 1004 10 16 0.00 0.00
11:53 am 11:53 Sunny 87 30.6 57 13.9 36 36 S 14 22 29.62 1003 10 16 0.00 0.00
12:53 pm 12:53 Sunny 90 32.2 55 12.8 31 31 S 12 19 29.62 1003 10 16 0.00 0.00
1:53 pm 13:53 Sunny 91 32.8 53 11.7 27 27 SSW 14 22 29.61 1003 10 16 0.00 0.00
2:53 pm 14:53 Sunny 94 34.4 51 10.6 23 23 SSW 16 26 29.60 1002 10 16 0.00 0.00
3:16 pm 15:16 Sunny 88 31.1 56 13.3 34 34 NW 15 24 29.50 999 10 16 0.00 0.00
3:53 pm 15:53 Mostly Sunny 87 30.6 55 12.8 34 34 NNW 10 17 29.59 1002 10 16 0.00 0.00
4:53 pm 16:53 Partly Cloudy 93 33.9 51 10.6 24 24 S 18 30 29.58 1002 10 16 0.00 0.00
5:02 pm 17:02 Partly Cloudy 93 33.9 50 10 23 23 S 20 31 29.44 997 10 16 0.00 0.00
5:53 pm 17:53 Mostly Sunny 92 33.3 49 9.4 23 23 S 23 37 29.59 1002 10 16 0.00 0.03
6:53 pm 18:53 Sunny 89 31.7 53 11.7 29 29 S 12 19 29.60 1003 10 16 0.00 0.00
7:53 pm 19:53 Clear 87 30.6 54 12.2 32 32 S 10 17 29.63 1003 10 16 0.00 0.00
8:53 pm 20:53 Clear 69 20.6 53 11.7 57 57 NNE 20 31 29.68 1005 10 16 0.00 0.00
9:53 pm 21:53 Clear 67 19.4 53 11.7 61 61 NNE 24 39 29.72 1006 10 16 0.00 0.00
10:25 pm 22:25 Mostly Clear with Nearby Thunderstorms 66 18.9 53 11.7 63 63 NNE 24 39 29.71 1006 10 16 0.00 0.00
10:41 pm 22:41 Partly Cloudy with Thunderstorms 66 18.9 53 11.7 63 63 NNE 23 37 29.71 1006 10 16 0.00 0.00
10:53 pm 22:53 Mostly Clear 65 18.3 53 11.7 66 66 NNE 24 39 29.74 1007 10 16 0.00 0.00
11:53 pm 23:53 Clear 62 16.7 53 11.7 73 73 NNE 20 31 29.74 1007 10 16 0.00 0.00

Powered by AerisWeather